Yemassee, SC (29945)

4:40 PM EDT on August 30, 2015 (GMT -0400)
Point South KOA | | Change Station
CLOSE
Current Station
Personal Weather Station
Location: Yemassee, SC
Elevation: 14 ft
Nearby Weather Stations

Elev 14 ft 32.62 °N, 80.88 °W | Updated 3 seconds ago

Rain
Rain
73.0 °F
Feels Like 73.0 °F
N
0.0
Wind Variable Wind from SSE
Gusts 0.0 mph

Today
High -- | Low -- °F
--% Chance of Precip.
Yesterday
High -- | Low -- °F
Precip. -- in
6:56 AM 7:50 PM
Full, 98% visible
Pressure 30.10 in
Visibility 3.0 miles
Clouds Few 800 ft
Mostly Cloudy 7500 ft
Overcast 10000 ft
Dew Point 73 °F
Humidity 99%
Rainfall 0.65 in
Snow Depth Not available.
UV 1.0 out of 12
Pollen 3.30 out of 12
Air Quality Not available.
Flu Activity Not available.
METAR KNBC 301956Z AUTO 10008KT 3SM RA FEW008 BKN075 OVC100 24/23 A3010 RMK AO2 SLP193 P0027 T02390228
Pressure 30.10 in
Visibility 3.0 miles
Clouds Few 800 ft
Mostly Cloudy 7500 ft
Overcast 10000 ft
Dew Point 73 °F
Humidity 99%
Rainfall 0.65 in
Snow Depth Not available.
UV 1.0 out of 12
Pollen 3.30 out of 12
Air Quality Not available.
Flu Activity Not available.
METAR KNBC 301956Z AUTO 10008KT 3SM RA FEW008 BKN075 OVC100 24/23 A3010 RMK AO2 SLP193 P0027 T02390228

10-Day Weather Forecast

×

Almanac

Astronomy

Aug. 30, 2015 Rise Set
Actual Time
Civil Twilight
Nautical Twilight
Astronomical Twilight
Moon
Length of Visible Light
Length of Day
Tomorrow will be .
, % of the Moon is Illuminated

Today's Extremes

State Highs State Lows

Community

WunderPhotos

Upload Photos

1,851,057 photos uploaded!

WunderBlogs® & News

Nearby

Air Quality

  Air Quality AQ Index Pollutant
Not available.

Snow Depth

Station Depth Elevation

Earthquake Activity

City Distance Mag. Time & Date
Minimum magnitude displayed is 2.5.

Coastal Water Temperatures

Place Temperature

Stations

Nearby Weather Stations

Station Location Temp. Windchill Dew Point Humidity Wind Precip. Elev Updated Type